Tracking 32936 objects as of 17-Jan-2026
HD Live streaming from Space Station
objects crossing your sky now

STARLINK-11705

Track STARLINK-11705 now!
10-day predictions
STARLINK-11705 is classified as:


NORAD ID: 63758
Int'l Code: 2025-089H
Perigee: 362.4 km
Apogee: 364.7 km
Inclination: 43.0 °
Period: 91.7 minutes
Semi major axis: 6734 km
RCS: Unknown
Launch date: April 29, 2025
Source: United States (US)
Launch site: AIR FORCE EASTERN TEST RANGE (AFETR)
Your satellite tracking list
Your tracking list is empty




NASA's NSSDC Master Catalog

Two Line Element Set (TLE):
1 63758U 25089H   26016.04288976  .00153636  00000-0  11773-2 0  9997
2 63758  42.9999 249.7493 0001736 264.6322  95.4348 15.70870275 41801
Source of the keplerian elements: AFSPC